Location: Mentone
(34.5413°N, 85.5351°W)
Time: 23:18:35
(UTC-05:00)

Vanguard 1 - Visible Passes

Search period start: 01 September 2014 00:00
Search period end: 11 September 2014 00:00
Orbit: 650 x 3838 km, 34.2° (Epoch: 30 August)

Date Brightness Start Highest point End Pass type
(mag) Time Alt. Az. Time Alt. Az. Time Alt. Az.
01 Sep 11.4 01:54:31 10° W 02:14:25 70° E 02:21:53 10° E visible
01 Sep 10.9 04:27:14 22° W 04:34:27 53° SSW 04:40:55 10° SE visible
01 Sep 13.5 19:02:19 10° S 19:19:06 26° SE 19:34:54 10° E visible
01 Sep 12.6 21:21:35 10° SW 21:44:19 58° SSE 21:53:06 37° E visible
01 Sep 12.4 23:47:50 10° WSW 00:22:30 12° E 00:23:01 10° E visible
02 Sep 11.3 02:17:06 10° W 02:35:20 79° SE 02:43:24 10° ESE visible
02 Sep 11.1 04:48:10 18° W 04:55:43 41° SW 05:01:51 10° SSE visible
02 Sep 13.3 19:21:48 10° SSW 19:40:44 34° SE 19:58:16 10° E visible
02 Sep 12.5 21:43:02 10° SW 22:06:21 66° SSE 22:14:15 44° E visible
03 Sep 12.5 00:10:21 10° W 00:43:36 15° E 00:44:41 10° E visible
03 Sep 11.2 02:39:39 10° W 02:56:27 77° S 03:04:51 10° ESE visible
03 Sep 11.4 05:09:18 13° W 05:16:47 29° SW 05:22:28 10° SSE visible
03 Sep 13.1 19:41:58 10° SSW 20:02:26 43° SE 20:21:00 10° E visible
03 Sep 12.4 22:04:48 10° WSW 22:28:28 74° SSE 22:35:07 51° E visible
04 Sep 12.6 00:32:57 10° W 01:04:53 17° E 01:06:20 10° E visible
04 Sep 11.2 03:17:45 67° SSW 03:17:56 68° SSW 03:26:10 10° ESE visible
04 Sep 11.8 05:30:49 10° W 05:37:41 20° SW 05:42:31 10° S visible
04 Sep 13.0 20:02:38 10° SW 20:24:14 51° SE 20:42:58 11° ENE visible
04 Sep 12.3 22:26:51 10° WSW 22:50:39 81° SSE 22:55:44 60° E visible
05 Sep 12.8 00:55:36 10° W 01:26:19 18° E 01:27:57 10° E visible
05 Sep 11.2 03:39:11 56° SW 03:39:25 56° SSW 03:47:20 10° SE visible
05 Sep 12.1 05:55:12 10° WSW 05:58:28 12° SW 06:01:14 10° SSW visible
05 Sep 12.8 20:23:43 10° SW 20:46:08 60° SSE 21:03:23 16° E visible
05 Sep 12.2 22:49:07 10° WSW 23:12:55 86° S 23:16:08 71° E visible
06 Sep 12.8 01:18:14 10° W 01:47:50 18° ESE 01:49:32 10° ESE visible
06 Sep 11.4 04:00:42 44° SW 04:00:42 44° SW 04:08:16 10° SSE visible
06 Sep 12.7 20:45:08 10° SW 21:08:11 69° SSE 21:23:37 22° E visible
06 Sep 12.2 23:11:34 10° W 23:35:13 89° S 23:36:22 83° E visible
07 Sep 12.7 01:40:50 10° W 02:09:22 18° ESE 02:11:01 10° ESE visible
07 Sep 11.7 04:22:14 33° SW 04:22:14 33° SW 04:28:52 10° SSE visible
07 Sep 12.7 21:06:51 10° WSW 21:30:21 76° SSE 21:43:43 29° E visible
07 Sep 12.3 23:34:07 10° W 23:56:27 84° W 23:56:27 84° W visible
08 Sep 12.7 02:03:23 10° WNW 02:30:53 17° SE 02:32:21 10° SE visible
08 Sep 12.0 04:43:45 23° SW 04:43:45 23° SW 04:49:00 10° S visible
08 Sep 13.1 19:05:36 10° SW 19:25:49 53° SE 19:46:54 10° ENE visible
08 Sep 12.6 21:28:49 10° WSW 21:52:38 82° SSE 22:03:42 38° E visible
08 Sep 12.4 23:56:42 10° W 00:16:25 70° W 00:16:25 70° W visible
09 Sep 12.7 02:25:57 10° WNW 02:52:21 16° SE 02:53:31 10° SE visible
09 Sep 12.3 05:05:13 15° SW 05:05:13 15° SW 05:08:12 10° SSW visible
09 Sep 13.0 19:26:40 10° SW 19:47:38 62° SSE 20:09:10 10° ENE visible
09 Sep 12.6 21:50:59 10° WSW 22:15:01 87° S 22:23:35 48° E visible
10 Sep 12.6 00:19:18 10° W 00:36:18 58° W 00:36:18 58° W visible
10 Sep 12.7 02:48:36 10° WNW 03:13:44 13° SSE 03:14:27 10° SSE visible
10 Sep 12.9 19:48:02 10° SW 20:09:39 70° SSE 20:30:42 12° ENE visible
10 Sep 12.5 22:13:19 10° W 22:37:27 89° S 22:43:25 59° E visible
